This demonstration page uses our WeatherBlox Daily Observations layout. Learn more.

Left ArrowRight Arrow

Hourly Observations for May 27, 2015

Temp ( °F °C ) Dew Point ( °F °C ) Humidity (%) Winds ( mph kmh ) Pressure ( in mb ) Visibility ( mi km ) Precip ( " mm )
12:51 am 00:51 Clear 65 18.3 32 0 29 29 NNW 6 9 29.82 1010 10 16 0.00 0.00
1:51 am 01:51 Clear 67 19.4 31 -0.6 26 26 NW 8 13 29.81 1010 10 16 0.00 0.00
2:51 am 02:51 Clear 63 17.2 32 0 31 31 SE 3 6 29.83 1010 10 16 0.00 0.00
3:51 am 03:51 Clear 60 15.6 29 -1.7 31 31 E 7 11 29.84 1011 10 16 0.00 0.00
4:51 am 04:51 Clear 62 16.7 30 -1.1 30 30 SE 5 7 29.85 1011 10 16 0.00 0.00
5:51 am 05:51 Sunny 59 15 29 -1.7 32 32 SE 3 6 29.86 1011 10 16 0.00 0.00
6:51 am 06:51 Sunny 66 18.9 31 -0.6 27 27 SE 5 7 29.87 1012 10 16 0.00 0.00
7:51 am 07:51 Sunny 71 21.7 33 0.6 25 25 SSE 5 7 29.88 1012 10 16 0.00 0.00
8:51 am 08:51 Sunny 75 23.9 31 -0.6 20 20 SSE 8 13 29.88 1012 10 16 0.00 0.00
9:51 am 09:51 Sunny 80 26.7 32 0 17 17 SSE 7 11 29.86 1011 10 16 0.00 0.00
10:51 am 10:51 Sunny 82 27.8 32 0 16 16 SSE 7 11 29.86 1011 10 16 0.00 0.00
11:51 am 11:51 Sunny 85 29.4 28 -2.2 13 13 S 13 20 29.85 1011 10 16 0.00 0.00
12:51 pm 12:51 Sunny 87 30.6 26 -3.3 11 11 VRB 5 7 29.83 1010 10 16 0.00 0.00
1:51 pm 13:51 Sunny 89 31.7 12 -11.1 5 5 S 10 17 29.79 1009 10 16 0.00 0.00
2:51 pm 14:51 Mostly Sunny 91 32.8 14 -10 6 6 S 9 15 29.77 1008 10 16 0.00 0.00
3:51 pm 15:51 Partly Cloudy 92 33.3 16 -8.9 6 6 SSE 14 22 29.74 1007 10 16 0.00 0.00
4:51 pm 16:51 Mostly Cloudy 92 33.3 15 -9.4 6 6 undefined N/A 29.73 1007 10 16 0.00 0.00
5:51 pm 17:51 Partly Cloudy 89 31.7 14 -10 6 6 NW 6 9 29.73 1007 10 16 0.00 0.00
6:51 pm 18:51 Mostly Sunny 87 30.6 13 -10.6 6 6 W 12 19 29.74 1007 10 16 0.00 0.00
7:51 pm 19:51 Clear 84 28.9 20 -6.7 9 9 NW 13 20 29.75 1007 10 16 0.00 0.00
8:51 pm 20:51 Clear 80 26.7 21 -6.1 11 11 W 9 15 29.76 1008 10 16 0.00 0.00
9:51 pm 21:51 Clear 78 25.6 22 -5.6 12 12 NW 9 15 29.78 1008 10 16 0.00 0.00
10:51 pm 22:51 Clear 76 24.4 24 -4.4 14 14 WNW 12 19 29.79 1009 10 16 0.00 0.00
11:51 pm 23:51 Clear 73 22.8 25 -3.9 17 17 NW 12 19 29.80 1009 10 16 0.00 0.00

Powered by AerisWeather